DW4236 Weather Reports


time (UTC)temp
F
wind
direction
speed
knots
gust
knots
rain 1hr
in
rain 24hr
in
rain mn
in
humidity
%
barometer
mb
20260904144105 80 6 0.9 7.0 0.00 0.25 0.25 74 1013.1
20260904143605 80 311 3.5 8.7 0.00 0.25 0.25 73 1013.0
20260904143104 80 10 1.7 7.8 0.00 0.25 0.25 76 1013.0
20260904141605 79 358 2.6 7.0 0.00 0.25 0.25 79 1013.0
20260904141104 79 300 1.7 5.2 0.00 0.25 0.25 82 1013.0
20260904140604 78 277 1.7 4.3 0.00 0.25 0.25 82 1013.0
20260904135605 77 355 1.7 5.2 0.00 0.25 0.25 86 1012.9
20260904135105 77 321 2.6 7.0 0.00 0.25 0.25 87 1013.0
20260904134604 76 342 1.7 6.1 0.00 0.25 0.25 88 1012.8
20260904134104 76 308 2.6 8.7 0.00 0.25 0.25 90 1012.7
20260904133605 75 320 1.7 7.8 0.00 0.25 0.25 91 1012.8
20260904133104 75 348 1.7 5.2 0.00 0.25 0.25 93 1012.8
20260904132604 74 318 1.7 4.3 0.00 0.25 0.25 94 1012.9
20260904132104 74 259 0.9 5.2 0.00 0.25 0.25 95 1012.9
20260904131604 73 307 2.6 4.3 0.00 0.25 0.25 95 1012.8
20260904131105 73 312 0.9 4.3 0.00 0.25 0.25 96 1012.8
20260904130606 73 280 1.7 5.2 0.00 0.25 0.25 96 1013.0
20260904130104 73 252 0.9 2.6 0.00 0.25 0.25 96 1013.0
20260904125604 72 356 1.7 4.3 0.00 0.25 0.25 96 1013.1
20260904125104 72 309 1.7 5.2 0.00 0.25 0.25 96 1013.2
20260904124604 72 323 0.9 5.2 0.00 0.25 0.25 97 1013.2
20260904124104 71 317 1.7 5.2 0.00 0.25 0.25 97 1013.3
20260904123605 71 306 0.9 4.3 0.00 0.25 0.25 97 1013.1
20260904123105 71 259 0.9 2.6 0.00 0.25 0.25 97 1013.1
20260904122105 71 261 0.9 2.6 0.00 0.25 0.25 97 1013.1
20260904121605 71 261 0.0 0.0 0.00 0.25 0.25 97 1012.9
20260904121105 70 261 0.0 0.0 0.00 0.25 0.25 97 1012.8
20260904120604 70 261 0.0 0.0 0.00 0.25 0.25 97 1012.8
20260904120105 70 261 0.0 0.0 0.00 0.25 0.25 97 1012.9
20260904115604 70 261 0.0 0.0 0.00 0.25 0.25 97 1012.9
20260904114604 69 261 0.9 1.7 0.01 0.25 0.25 97 1012.8
20260904114104 69 261 0.0 0.0 0.01 0.25 0.25 97 1012.8
20260904113604 68 261 0.0 0.0 0.01 0.25 0.25 97 1012.9
20260904113104 68 261 0.0 0.0 0.01 0.25 0.25 96 1012.8
20260904112604 68 261 0.0 0.0 0.01 0.25 0.25 96 1012.9
20260904111605 68 261 0.0 0.0 0.01 0.25 0.25 96 1012.7
20260904111105 68 261 0.0 0.0 0.01 0.25 0.25 96 1012.8
20260904110605 68 261 0.0 0.0 0.01 0.25 0.25 96 1012.7
20260904110105 68 261 0.0 0.0 0.01 0.25 0.25 96 1012.6
20260904105605 68 261 0.0 0.0 0.01 0.25 0.25 96 1012.6
20260904105105 68 261 0.0 0.0 0.00 0.24 0.24 96 1012.5
20260904104605 68 261 0.0 0.0 0.00 0.24 0.24 96 1012.4
20260904104104 68 261 0.0 0.0 0.00 0.24 0.24 96 1012.4
20260904103605 68 261 0.0 0.0 0.00 0.24 0.24 96 1012.3
20260904103104 68 261 0.0 0.0 0.00 0.24 0.24 96 1012.4
20260904102104 68 261 0.0 0.0 0.00 0.24 0.24 96 1012.4
20260904101604 68 261 0.0 0.0 0.00 0.24 0.24 96 1012.4
20260904100604 68 261 0.0 0.9 0.00 0.24 0.24 96 1012.3
20260904100105 68 261 0.0 0.0 0.00 0.24 0.24 96 1012.2
20260904095604 68 261 0.0 0.0 0.00 0.24 0.24 96 1012.2
20260904095105 68 261 0.0 0.0 0.00 0.24 0.24 96 1012.0
20260904094604 69 261 0.0 0.0 0.00 0.24 0.24 96 1012.0
20260904094105 69 261 0.0 0.0 0.00 0.24 0.24 96 1011.9
20260904093605 69 261 0.0 0.0 0.00 0.24 0.24 96 1011.9
20260904093104 69 261 0.0 0.0 0.00 0.24 0.24 96 1011.8
20260904092605 69 261 0.0 0.9 0.00 0.25 0.24 96 1011.7
20260904091605 69 261 0.0 1.7 0.00 0.25 0.24 96 1011.8
20260904090604 69 261 0.0 0.9 0.00 0.25 0.24 96 1012.0
20260904090104 69 261 0.0 0.0 0.00 0.25 0.24 96 1011.9
20260904085604 69 261 0.0 0.0 0.00 0.25 0.24 96 1011.9
20260904085104 69 261 0.0 0.0 0.00 0.25 0.24 96 1011.9
20260904084605 69 261 0.0 0.0 0.00 0.25 0.24 96 1011.9
20260904084104 69 261 0.0 0.0 0.00 0.25 0.24 96 1011.8
20260904083605 69 261 0.0 0.9 0.00 0.25 0.24 96 1011.8
20260904083104 70 261 0.0 0.0 0.00 0.25 0.24 96 1011.7
20260904082105 70 261 0.0 0.0 0.01 0.25 0.24 96 1011.5
20260904081604 70 261 0.9 1.7 0.02 0.25 0.24 96 1011.4
20260904081104 70 261 0.0 0.0 0.04 0.25 0.24 96 1011.3
20260904080604 70 261 0.0 0.0 0.05 0.25 0.24 96 1011.3
20260904080104 70 261 0.0 1.7 0.05 0.25 0.24 95 1011.2
20260904075605 70 261 0.9 1.7 0.06 0.25 0.24 95 1011.2
20260904075106 70 203 0.0 0.9 0.07 0.25 0.24 95 1011.2
20260904074604 70 203 0.9 1.7 0.11 0.25 0.24 95 1011.2
20260904074106 70 202 0.0 0.0 0.18 0.25 0.24 95 1011.2
20260904073606 70 202 0.0 0.0 0.20 0.25 0.24 95 1011.1
20260904073104 70 203 0.0 0.0 0.20 0.26 0.24 95 1011.1
20260904072604 70 203 0.0 0.0 0.20 0.26 0.24 95 1011.4
20260904071605 70 211 0.0 2.6 0.20 0.24 0.22 95 1011.8
20260904071104 70 267 0.9 1.7 0.20 0.22 0.20 95 1012.2
20260904070604 70 275 1.7 2.6 0.19 0.21 0.19 95 1012.3
20260904070106 70 32 1.7 10.4 0.19 0.21 0.19 95 1012.3
20260904065604 71 265 4.3 11.3 0.18 0.20 0.18 95 1012.5
20260904065105 72 294 4.3 8.7 0.17 0.19 0.17 94 1012.5
20260904064604 74 336 6.1 15.6 0.13 0.15 0.13 96 1012.8
20260904064105 74 259 0.0 0.9 0.06 0.08 0.06 96 1012.6
20260904063105 73 259 0.0 0.0 0.04 0.06 0.04 96 1012.1
20260904062606 73 259 0.0 0.0 0.04 0.06 0.04 96 1012.0
20260904062104 73 259 0.0 0.0 0.03 0.05 0.03 95 1011.9
20260904061604 73 259 0.0 0.0 0.02 0.04 0.02 95 1011.9
20260904061104 73 259 0.0 0.0 0.00 0.02 0.00 95 1011.9
20260904060604 73 259 0.0 0.0 0.00 0.03 0.00 95 1011.8
20260904060105 73 259 0.0 0.0 0.00 0.03 0.00 95 1011.8
20260904055104 73 259 0.0 0.0 0.00 0.03 0.00 95 1011.9
20260904054606 73 259 0.0 0.0 0.00 0.03 0.00 95 1012.0
20260904053104 74 259 0.0 0.0 0.00 0.04 0.00 95 1012.2
20260904052604 74 259 0.0 0.0 0.00 0.04 0.00 95 1012.2
20260904052104 74 259 0.0 0.0 0.00 0.05 0.00 95 1012.3
20260904051604 74 259 0.0 0.0 0.00 0.05 0.00 95 1012.3
20260904051106 73 259 0.0 0.0 0.00 0.06 0.00 95 1012.3
20260904050605 73 259 0.0 0.0 0.00 0.07 0.00 95 1012.3
20260904050105 73 259 0.0 0.0 0.00 0.09 0.00 95 1012.3
20260904045605 73 259 0.0 0.0 0.00 0.11 0.00 95 1012.4
20260904044604 73 259 0.0 0.0 0.00 0.16 0.00 95 1012.3
20260904044105 73 259 0.0 0.0 0.00 0.18 0.00 95 1012.3
20260904043604 73 259 0.0 0.0 0.00 0.21 0.00 95 1012.4
20260904043104 73 259 0.0 0.0 0.00 0.23 0.00 95 1012.4
20260904042604 73 259 0.0 0.0 0.00 0.26 0.00 95 1012.4
20260904042104 73 259 0.0 0.0 0.00 0.29 0.00 95 1012.5
20260904041604 73 259 0.0 0.0 0.00 0.37 0.00 95 1012.6
20260904040605 73 259 0.0 0.0 0.00 0.37 0.00 95 1012.7
20260904040105 73 259 0.0 0.0 0.00 0.37 0.00 95 1012.7
20260904035605 73 259 0.0 0.0 0.00 0.37 0.37 94 1012.7
20260904034604 73 259 0.0 0.0 0.00 0.37 0.37 94 1012.4
20260904034105 73 259 0.0 0.0 0.00 0.37 0.37 94 1012.5
20260904033604 74 259 0.0 0.0 0.00 0.37 0.37 94 1012.5
20260904033105 74 259 0.0 0.0 0.00 0.37 0.37 94 1012.5
20260904032604 74 259 0.0 0.0 0.00 0.37 0.37 94 1012.5
20260904031604 74 259 0.0 0.0 0.00 0.37 0.37 94 1012.5
20260904031104 74 259 0.0 0.0 0.00 0.37 0.37 94 1012.5
20260904030605 74 259 0.0 0.0 0.00 0.37 0.37 94 1012.5
20260904030104 74 259 0.0 0.0 0.00 0.37 0.37 94 1012.6
20260904025604 74 259 0.0 0.0 0.00 0.37 0.37 94 1012.8
20260904025105 74 259 0.0 0.0 0.00 0.37 0.37 94 1012.9
20260904023604 74 259 0.0 0.0 0.00 0.37 0.37 94 1013.2
20260904023104 74 259 0.0 0.0 0.00 0.37 0.37 94 1013.2
20260904022604 74 259 0.0 0.9 0.00 0.37 0.37 94 1013.2
20260904022104 74 259 0.0 0.0 0.00 0.37 0.37 94 1013.2
20260904021604 74 259 0.0 0.0 0.00 0.37 0.37 94 1013.2
20260904020605 74 259 0.0 0.0 0.00 0.37 0.37 94 1013.2
20260904020106 74 259 0.0 0.0 0.00 0.37 0.37 94 1013.3
20260904015605 74 259 0.0 0.0 0.00 0.37 0.37 93 1013.3
20260904015104 74 259 0.0 0.0 0.00 0.37 0.37 93 1013.3
20260904014604 74 259 0.0 0.0 0.00 0.37 0.37 93 1013.4
20260904014104 74 259 0.0 0.0 0.00 0.37 0.37 93 1013.5
20260904013605 74 259 0.0 0.0 0.00 0.37 0.37 93 1013.7
20260904013105 75 259 0.0 0.0 0.00 0.37 0.37 93 1013.6
20260904012604 75 259 0.0 0.0 0.00 0.37 0.37 93 1013.5
20260904011629 75 259 0.0 0.0 0.00 0.37 0.37 93 1013.3
20260904011104 75 259 0.0 0.0 0.00 0.37 0.37 92 1013.2
20260904010604 75 259 0.0 0.0 0.00 0.37 0.37 92 1013.3
20260904010105 75 259 0.0 0.0 0.00 0.37 0.37 92 1013.3
20260904005605 75 259 0.0 0.9 0.00 0.37 0.37 92 1013.4
20260904004605 76 259 0.0 0.0 0.00 0.37 0.37 91 1013.3
20260904003605 76 259 0.0 0.0 0.00 0.37 0.37 91 1013.3
20260904002605 76 259 0.0 0.0 0.00 0.37 0.37 91 1013.1
20260904002104 77 259 0.0 0.0 0.00 0.37 0.37 90 1013.2
20260904001604 77 259 0.0 0.0 0.00 0.37 0.37 90 1013.2
20260904001105 77 259 0.0 0.0 0.00 0.37 0.37 90 1013.1
20260904000604 77 259 0.0 0.0 0.00 0.37 0.37 89 1013.1
20260904000104 78 259 0.0 0.0 0.00 0.37 0.37 89 1013.0
20260903235604 78 259 0.0 0.0 0.00 0.37 0.37 89 1012.9
20260903235104 78 259 0.0 0.0 0.00 0.37 0.37 88 1012.9
20260903234604 78 259 0.0 0.0 0.00 0.37 0.37 88 1013.0
20260903233604 79 259 0.0 0.0 0.00 0.37 0.37 87 1012.9
20260903233104 79 259 0.0 0.0 0.00 0.37 0.37 86 1012.8
20260903232605 79 259 0.0 0.0 0.00 0.37 0.37 85 1012.7
20260903232105 80 259 0.0 0.0 0.00 0.37 0.37 85 1012.7
20260903231604 80 259 0.0 0.0 0.00 0.37 0.37 84 1012.7
20260903230605 81 259 0.0 0.9 0.00 0.37 0.37 83 1012.7
20260903230104 81 259 0.0 0.9 0.00 0.37 0.37 83 1012.7
20260903225604 82 259 0.0 0.0 0.00 0.37 0.37 82 1012.6
20260903225104 82 259 0.0 0.0 0.00 0.37 0.37 81 1012.5
20260903224604 82 259 0.0 0.0 0.00 0.37 0.37 81 1012.7
20260903224105 83 259 0.0 0.0 0.00 0.37 0.37 79 1012.7
20260903223604 83 259 0.0 0.9 0.00 0.37 0.37 78 1012.8
20260903223104 84 259 0.0 0.0 0.00 0.37 0.37 77 1012.8
20260903222604 84 259 0.9 4.3 0.00 0.37 0.37 75 1012.8
20260903222104 84 259 0.0 0.9 0.00 0.37 0.37 76 1012.9
20260903221604 84 259 0.0 0.9 0.00 0.37 0.37 75 1012.8
20260903221104 85 259 0.0 0.9 0.00 0.37 0.37 75 1012.7
20260903220604 85 259 0.0 1.7 0.00 0.37 0.37 75 1012.8
20260903220104 85 259 0.0 0.0 0.00 0.37 0.37 75 1012.8
20260903215604 85 259 0.0 1.7 0.00 0.37 0.37 74 1013.0
20260903215104 85 259 0.0 1.7 0.00 0.37 0.37 74 1012.9
20260903214604 85 259 0.9 2.6 0.00 0.37 0.37 74 1013.1
20260903214104 85 259 0.9 2.6 0.00 0.37 0.37 73 1013.1
20260903213605 85 259 0.0 1.7 0.00 0.37 0.37 74 1013.0
20260903213104 85 259 0.9 2.6 0.00 0.37 0.37 74 1013.0
20260903212605 85 259 0.9 2.6 0.00 0.37 0.37 73 1012.9
20260903212104 85 259 0.9 2.6 0.00 0.37 0.37 72 1012.8
20260903210605 85 238 0.9 2.6 0.00 0.37 0.37 71 1012.7
20260903210104 86 246 2.6 5.2 0.00 0.37 0.37 71 1012.8
20260903205104 86 272 2.6 5.2 0.00 0.37 0.37 70 1012.8
20260903204103 86 250 0.9 2.6 0.00 0.37 0.37 72 1012.8
20260903203604 86 272 1.7 5.2 0.00 0.37 0.37 69 1012.8
20260903203104 86 342 1.7 5.2 0.00 0.37 0.37 69 1012.7
20260903202104 86 343 1.7 6.1 0.00 0.37 0.37 69 1012.9
20260903201105 86 275 1.7 4.3 0.00 0.37 0.37 70 1012.9
20260903200604 86 358 2.6 6.1 0.00 0.37 0.37 71 1013.0
20260903195605 86 344 0.9 4.3 0.00 0.37 0.37 73 1013.2
20260903195104 85 262 3.5 6.1 0.00 0.37 0.37 72 1013.3
20260903194604 85 307 2.6 5.2 0.00 0.37 0.37 74 1013.3
20260903194104 85 292 1.7 7.8 0.00 0.37 0.37 74 1013.4
20260903192604 85 62 1.7 6.1 0.00 0.37 0.37 74 1013.4
20260903192105 84 303 1.7 4.3 0.00 0.37 0.37 75 1013.2
20260903191604 84 21 1.7 6.1 0.00 0.37 0.37 75 1013.3
20260903191104 84 319 0.9 5.2 0.00 0.37 0.37 74 1013.3
20260903190604 84 301 2.6 5.2 0.00 0.37 0.37 76 1013.3
20260903190103 83 266 1.7 2.6 0.00 0.37 0.37 76 1013.2
20260903185104 83 330 1.7 5.2 0.00 0.38 0.37 77 1013.4
20260903184605 83 279 1.7 6.1 0.00 0.38 0.37 78 1013.5
20260903184104 83 295 0.9 2.6 0.00 0.38 0.37 78 1013.5
20260903183604 82 260 0.9 2.6 0.00 0.39 0.37 79 1013.7
20260903182605 82 264 2.6 4.3 0.00 0.40 0.37 78 1013.7
20260903182104 82 275 0.0 4.3 0.00 0.42 0.37 78 1013.9
20260903181104 82 263 2.6 6.1 0.00 0.47 0.37 75 1013.9
20260903180605 83 307 0.9 10.4 0.00 0.48 0.37 75 1013.9
20260903180105 83 265 4.3 10.4 0.00 0.51 0.37 75 1014.0
20260903175105 84 315 1.7 7.0 0.00 0.57 0.37 75 1014.0
20260903174103 83 308 4.3 7.8 0.00 0.72 0.37 77 1014.0
20260903173604 83 275 2.6 7.0 0.00 0.82 0.37 76 1014.0
20260903173104 83 279 2.6 6.1 0.00 0.85 0.37 77 1014.1
20260903172604 82 276 0.9 6.1 0.00 0.85 0.37 79 1014.1
20260903172104 82 269 4.3 7.8 0.00 0.85 0.37 79 1014.3
20260903171605 81 258 2.6 8.7 0.00 0.85 0.37 79 1014.3
20260903171105 81 303 1.7 7.8 0.00 0.85 0.37 82 1014.3
20260903170105 79 253 1.7 4.3 0.00 0.85 0.37 83 1014.3
20260903165604 79 254 0.9 5.2 0.00 0.85 0.37 84 1014.5
20260903164604 78 291 4.3 8.7 0.00 0.85 0.37 83 1014.7
20260903164104 78 291 2.6 7.8 0.00 0.85 0.37 84 1014.7
20260903163604 78 269 3.5 7.0 0.00 0.85 0.37 83 1014.8
20260903162604 78 291 1.7 4.3 0.00 0.85 0.37 84 1014.9
20260903161605 78 295 2.6 8.7 0.00 0.85 0.37 84 1015.1
20260903161104 78 233 2.6 6.1 0.00 0.85 0.37 85 1015.1
20260903160606 78 287 1.7 7.0 0.00 0.85 0.37 86 1015.2
20260903155604 77 255 0.9 4.3 0.00 0.85 0.37 85 1015.2
20260903155105 77 312 0.9 5.2 0.00 0.85 0.37 86 1015.3
20260903154604 77 269 2.6 8.7 0.00 0.85 0.37 86 1015.4
20260903154104 77 280 1.7 6.1 0.00 0.85 0.37 85 1015.5
20260903153604 77 272 5.2 7.0 0.00 0.85 0.37 87 1015.7
20260903152604 76 214 1.7 6.1 0.00 0.85 0.37 89 1015.6
20260903152104 75 263 1.7 2.6 0.00 0.85 0.37 89 1015.6
20260903151605 75 260 3.5 7.0 0.00 0.85 0.37 89 1015.6
20260903151104 75 266 0.9 4.3 0.00 0.85 0.37 90 1015.7
20260903150105 74 213 2.6 4.3 0.00 0.85 0.37 90 1015.9
20260903145604 74 291 0.9 4.3 0.00 0.85 0.37 91 1015.9
20260903144604 73 265 2.6 7.0 0.00 0.85 0.37 92 1015.9